Appleton, WI

5:34 AM CST on December 13, 2019 (GMT -0600)
Outagamie County Regional

Weather History for KATW - October, 2019

Change the Weather History Date:

Thursday, October 17, 2019

  Actual Average Record
Temperature  
Mean Temperature 42 °F -  
Max Temperature 48 °F 56 °F 80 °F (1956)
Min Temperature 35 °F 38 °F 23 °F (1952)
Degree Days  
Heating Degree Days 24    
Moisture  
Dew Point 34 °F    
Average Humidity 79    
Maximum Humidity 100    
Minimum Humidity 50    
Precipitation  
Precipitation 0.00 in - - ()
Sea Level Pressure  
Sea Level Pressure 30.00 in    
Wind  
Wind Speed 5 mph ()    
Max Wind Speed 9 mph    
Max Gust Speed -    
Visibility 10.0 miles    
Events      
Averages and records for this station are not official NWS values.
T = Trace of Precipitation, MM = Missing Value Source: Averaged Metar Reports

Daily Weather History Graph

Daily Weather History Graph

Search for Another Location

Airport or City:

Astronomy

Oct. 17, 2019 Rise Set
Actual Time 7:11 AM CDT 6:06 PM CDT
Civil Twilight 6:41 AM CDT 6:36 PM CDT
Nautical Twilight 6:08 AM CDT 7:09 PM CDT
Astronomical Twilight 5:34 AM CDT 7:43 PM CDT
Moon 8:31 PM CDT (10/17) 10:49 AM CDT (10/17)
Length of Visible Light 11h 54m
Length of Day
10h 55m
Waning Gibbous, 86% of the Moon is Illuminated
Oct 17
Waning Gibbous
Oct 21
Last Quarter
Oct 27
New
Nov 4
First Quarter
Nov 12
Full

Hourly Weather History & Observations

Time (CDT) Temp. Windchill Dew Point Humidity Pressure Visibility Wind Dir Wind Speed Gust Speed Precip Events Conditions
12:15 AM 35.6 °F 29.9 °F 30.2 °F 81% 29.99 in 10.0 mi WNW 6.9 mph - N/A   Clear
12:35 AM 37.4 °F 32.8 °F 30.2 °F 75% 29.99 in 10.0 mi WNW 5.8 mph - N/A   Clear
12:55 AM 37.4 °F 32.8 °F 32.0 °F 81% 29.99 in 10.0 mi WNW 5.8 mph - N/A   Clear
1:15 AM 35.6 °F 30.7 °F 32.0 °F 87% 29.99 in 10.0 mi WNW 5.8 mph - N/A   Clear
1:35 AM 35.6 °F 29.9 °F 32.0 °F 87% 29.99 in 10.0 mi WNW 6.9 mph - N/A   Clear
1:55 AM 35.6 °F 31.7 °F 32.0 °F 87% 29.98 in 10.0 mi WNW 4.6 mph - N/A   Clear
2:15 AM 35.6 °F 30.7 °F 32.0 °F 87% 29.98 in 10.0 mi West 5.8 mph - N/A   Clear
2:35 AM 37.4 °F 33.8 °F 33.8 °F 87% 29.97 in 10.0 mi West 4.6 mph - N/A   Clear
2:55 AM 37.4 °F 32.8 °F 33.8 °F 87% 29.97 in 10.0 mi West 5.8 mph - N/A   Clear
3:15 AM 37.4 °F 32.1 °F 33.8 °F 87% 29.98 in 10.0 mi West 6.9 mph - N/A   Scattered Clouds
3:55 AM 35.6 °F 29.9 °F 33.8 °F 93% 29.98 in 10.0 mi West 6.9 mph - N/A   Scattered Clouds
4:15 AM 37.4 °F 33.8 °F 35.6 °F 93% 29.98 in 10.0 mi West 4.6 mph - N/A   Scattered Clouds
4:35 AM 37.4 °F 32.8 °F 35.6 °F 93% 29.98 in 10.0 mi West 5.8 mph - N/A   Overcast
4:55 AM 37.4 °F 33.8 °F 35.6 °F 93% 29.98 in 10.0 mi West 4.6 mph - N/A   Overcast
5:15 AM 37.4 °F 32.8 °F 35.6 °F 93% 29.98 in 10.0 mi West 5.8 mph - N/A   Mostly Cloudy
5:20 AM 37.4 °F 32.1 °F 37.4 °F 100% 29.98 in 10.0 mi West 6.9 mph - N/A   Scattered Clouds
5:45 AM 37.4 °F 32.8 °F 37.4 °F 100% 29.98 in 10.0 mi West 5.8 mph - N/A   Scattered Clouds
6:45 AM 39.2 °F 35.0 °F 37.4 °F 93% 29.99 in 10.0 mi West 5.8 mph - N/A   Scattered Clouds
7:45 AM 39.2 °F 35.0 °F 37.4 °F 93% 30.00 in 10.0 mi WNW 5.8 mph - N/A   Scattered Clouds
8:45 AM 42.8 °F 39.3 °F 37.4 °F 81% 30.02 in 10.0 mi NW 5.8 mph - N/A   Scattered Clouds
9:45 AM 42.8 °F 37.5 °F 35.6 °F 76% 30.03 in 10.0 mi NNW 9.2 mph - N/A   Mostly Cloudy
10:45 AM 46.4 °F 42.4 °F 33.8 °F 62% 30.03 in 10.0 mi NNE 8.1 mph - N/A   Mostly Cloudy
11:45 AM 46.4 °F 43.5 °F 32.0 °F 57% 30.03 in 10.0 mi NNE 5.8 mph - N/A   Mostly Cloudy
12:45 PM 46.4 °F 43.5 °F 32.0 °F 57% 30.02 in 10.0 mi NNE 5.8 mph - N/A   Overcast
1:45 PM 46.4 °F 45.2 °F 32.0 °F 57% 30.01 in 10.0 mi NNW 3.5 mph - N/A   Overcast
2:45 PM 48.2 °F - 32.0 °F 54% 30.00 in 10.0 mi WNW 4.6 mph - N/A   Overcast
3:45 PM 48.2 °F - 32.0 °F 54% 30.00 in 10.0 mi NNW 3.5 mph - N/A   Overcast
4:45 PM 48.2 °F - 30.2 °F 50% 30.00 in 10.0 mi WNW 3.5 mph - N/A   Mostly Cloudy
5:45 PM 48.2 °F - 32.0 °F 54% 30.00 in 10.0 mi Calm Calm - N/A   Mostly Cloudy
6:45 PM 46.4 °F - 32.0 °F 57% 29.99 in 10.0 mi Calm Calm - N/A   Mostly Cloudy
7:45 PM 44.6 °F - 33.8 °F 66% 30.00 in 10.0 mi Calm Calm - N/A   Scattered Clouds
8:45 PM 41.0 °F - 32.0 °F 70% 30.00 in 10.0 mi Calm Calm - N/A   Scattered Clouds
9:45 PM 41.0 °F - 33.8 °F 76% 30.00 in 10.0 mi Calm Calm - N/A   Scattered Clouds
10:45 PM 39.2 °F - 33.8 °F 81% 30.01 in 10.0 mi Calm Calm - N/A   Scattered Clouds
10:55 PM 39.2 °F 37.0 °F 32.0 °F 75% 30.01 in 10.0 mi South 3.5 mph - N/A   Clear
11:15 PM 37.4 °F - 32.0 °F 81% 30.01 in 10.0 mi Calm Calm - N/A   Clear
11:35 PM 37.4 °F - 33.8 °F 87% 30.01 in 10.0 mi Calm Calm - N/A   Clear
11:55 PM 37.4 °F - 35.6 °F 93% 30.01 in 10.0 mi Calm Calm - N/A   Clear